Time,TemperatureF,DewpointF,PressureIn,WindDirection,WindDirectionDegrees,WindSpeedMPH,WindSpeedGustMPH,Humidity,HourlyPrecipIn,Conditions,Clouds,dailyrainin,SoftwareType,DateUTC
2013-03-15 00:03:00,30.0,22.0,30.05,WSW,254,0.0,5.0,73,0.00,,,0.00,,2013-03-15 04:03:00,
2013-03-15 00:12:00,30.0,22.0,30.05,WSW,254,0.0,5.0,73,0.00,,,0.00,,2013-03-15 04:12:00,
2013-03-15 00:23:00,31.0,24.0,30.05,WNW,294,0.0,2.0,75,0.00,,,0.00,,2013-03-15 04:23:00,
2013-03-15 00:32:00,31.0,24.0,30.05,WNW,300,0.0,2.0,76,0.00,,,0.00,,2013-03-15 04:32:00,
2013-03-15 00:43:00,31.0,24.0,30.05,WNW,300,0.0,2.0,76,0.00,,,0.00,,2013-03-15 04:43:00,
2013-03-15 00:53:00,31.0,25.0,30.04,NNW,338,0.0,2.0,77,0.00,,,0.00,,2013-03-15 04:53:00,
2013-03-15 01:02:00,31.0,25.0,30.03,NNW,338,0.0,1.0,78,0.00,,,0.00,,2013-03-15 05:02:00,
2013-03-15 01:12:00,31.0,25.0,30.03,NNW,338,0.0,1.0,78,0.00,,,0.00,,2013-03-15 05:12:00,
2013-03-15 01:23:00,31.0,25.0,30.03,West,273,0.0,0.0,78,0.00,,,0.00,,2013-03-15 05:23:00,
2013-03-15 01:32:00,31.0,25.0,30.03,West,273,0.0,0.0,79,0.00,,,0.00,,2013-03-15 05:32:00,
2013-03-15 01:42:00,31.0,25.0,30.03,West,273,0.0,0.0,79,0.00,,,0.00,,2013-03-15 05:42:00,
2013-03-15 01:52:00,30.0,25.0,30.02,West,273,0.0,0.0,81,0.00,,,0.00,,2013-03-15 05:52:00,
2013-03-15 02:02:00,29.0,24.0,30.01,West,273,0.0,0.0,82,0.00,,,0.00,,2013-03-15 06:02:00,
2013-03-15 02:12:00,29.0,24.0,30.01,West,273,0.0,0.0,82,0.00,,,0.00,,2013-03-15 06:12:00,
2013-03-15 02:22:00,29.0,25.0,30.01,West,273,0.0,0.0,84,0.00,,,0.00,,2013-03-15 06:22:00,
2013-03-15 02:32:00,28.0,24.0,30.00,West,273,0.0,0.0,85,0.00,,,0.00,,2013-03-15 06:32:00,
2013-03-15 02:42:00,28.0,24.0,30.00,West,273,0.0,0.0,85,0.00,,,0.00,,2013-03-15 06:42:00,
2013-03-15 02:53:00,28.0,24.0,30.00,West,273,0.0,0.0,86,0.00,,,0.00,,2013-03-15 06:53:00,
2013-03-15 03:02:00,28.0,25.0,30.00,West,273,0.0,0.0,87,0.00,,,0.00,,2013-03-15 07:02:00,
2013-03-15 03:12:00,28.0,25.0,30.00,West,273,0.0,0.0,87,0.00,,,0.00,,2013-03-15 07:12:00,
2013-03-15 03:22:00,28.0,25.0,30.00,West,273,0.0,0.0,88,0.00,,,0.00,,2013-03-15 07:22:00,
2013-03-15 03:32:00,28.0,25.0,29.99,West,273,0.0,0.0,89,0.00,,,0.00,,2013-03-15 07:32:00,
2013-03-15 03:42:00,28.0,25.0,29.99,West,273,0.0,0.0,89,0.00,,,0.00,,2013-03-15 07:42:00,
2013-03-15 03:52:00,29.0,26.0,29.98,West,273,0.0,2.0,90,0.00,,,0.00,,2013-03-15 07:52:00,
2013-03-15 04:02:00,31.0,29.0,29.98,NW,305,2.0,3.0,91,0.00,,,0.00,,2013-03-15 08:02:00,
2013-03-15 04:12:00,31.0,29.0,29.98,NW,305,2.0,3.0,91,0.00,,,0.00,,2013-03-15 08:12:00,
2013-03-15 04:23:00,32.0,29.0,29.97,NW,306,5.0,10.0,90,0.00,,,0.00,,2013-03-15 08:23:00,
2013-03-15 04:33:00,33.0,30.0,29.96,NW,319,1.0,6.0,88,0.00,,,0.00,,2013-03-15 08:33:00,
2013-03-15 04:42:00,33.0,30.0,29.96,NW,319,1.0,6.0,88,0.00,,,0.00,,2013-03-15 08:42:00,
2013-03-15 04:52:00,33.0,30.0,29.95,NW,304,2.0,9.0,88,0.00,,,0.00,,2013-03-15 08:52:00,
2013-03-15 05:02:00,33.0,30.0,29.94,NNW,342,4.0,5.0,88,0.00,,,0.00,,2013-03-15 09:02:00,
2013-03-15 05:12:00,33.0,30.0,29.94,NNW,342,4.0,5.0,88,0.00,,,0.00,,2013-03-15 09:12:00,
2013-03-15 05:22:00,33.0,30.0,29.93,NW,313,4.0,7.0,87,0.00,,,0.00,,2013-03-15 09:22:00,
2013-03-15 05:33:00,33.0,30.0,29.93,NW,319,0.0,3.0,87,0.00,,,0.00,,2013-03-15 09:33:00,
2013-03-15 05:43:00,33.0,30.0,29.93,NW,319,0.0,3.0,87,0.00,,,0.00,,2013-03-15 09:43:00,
2013-03-15 05:53:00,33.0,30.0,29.93,WNW,303,2.0,4.0,87,0.00,,,0.00,,2013-03-15 09:53:00,
2013-03-15 06:03:00,33.0,30.0,29.92,West,281,1.0,4.0,87,0.00,,,0.00,,2013-03-15 10:03:00,
2013-03-15 06:13:00,33.0,30.0,29.92,West,281,1.0,4.0,87,0.00,,,0.00,,2013-03-15 10:13:00,
2013-03-15 06:23:00,33.0,30.0,29.92,WNW,299,2.0,8.0,87,0.00,,,0.00,,2013-03-15 10:23:00,
2013-03-15 06:33:00,33.0,30.0,29.91,WNW,294,1.0,5.0,87,0.00,,,0.00,,2013-03-15 10:33:00,
2013-03-15 06:43:00,33.0,30.0,29.91,WNW,294,1.0,5.0,87,0.00,,,0.00,,2013-03-15 10:43:00,
2013-03-15 06:52:00,33.0,30.0,29.91,NW,313,1.0,4.0,87,0.00,,,0.00,,2013-03-15 10:52:00,
2013-03-15 07:03:00,33.0,30.0,29.91,NW,311,2.0,6.0,88,0.00,,,0.00,,2013-03-15 11:03:00,
2013-03-15 07:12:00,33.0,30.0,29.91,NW,311,2.0,6.0,88,0.00,,,0.00,,2013-03-15 11:12:00,
2013-03-15 07:23:00,33.0,30.0,29.91,West,275,2.0,4.0,88,0.00,,,0.00,,2013-03-15 11:23:00,
2013-03-15 07:32:00,33.0,30.0,29.90,West,270,1.0,6.0,88,0.00,,,0.00,,2013-03-15 11:32:00,
2013-03-15 07:42:00,33.0,30.0,29.90,West,270,1.0,6.0,88,0.00,,,0.00,,2013-03-15 11:42:00,
2013-03-15 07:52:00,33.0,30.0,29.91,WSW,238,0.0,3.0,89,0.00,,,0.00,,2013-03-15 11:52:00,
2013-03-15 08:02:00,32.0,29.0,29.90,WNW,294,0.0,4.0,89,0.00,,,0.00,,2013-03-15 12:02:00,
2013-03-15 08:12:00,32.0,29.0,29.90,WNW,294,0.0,4.0,89,0.00,,,0.00,,2013-03-15 12:12:00,
2013-03-15 08:23:00,32.0,29.0,29.90,NNW,329,0.0,2.0,89,0.00,,,0.00,,2013-03-15 12:23:00,
2013-03-15 08:32:00,32.0,29.0,29.91,NNW,329,0.0,1.0,90,0.00,,,0.00,,2013-03-15 12:32:00,
2013-03-15 08:42:00,32.0,29.0,29.91,NNW,329,0.0,1.0,90,0.00,,,0.00,,2013-03-15 12:42:00,
2013-03-15 08:52:00,33.0,30.0,29.91,WNW,302,0.0,2.0,90,0.00,,,0.00,,2013-03-15 12:52:00,
2013-03-15 09:02:00,33.0,30.0,29.90,NW,313,0.0,4.0,90,0.00,,,0.00,,2013-03-15 13:02:00,
2013-03-15 09:12:00,33.0,30.0,29.90,NW,313,0.0,4.0,90,0.00,,,0.00,,2013-03-15 13:12:00,
2013-03-15 09:22:00,33.0,30.0,29.90,NW,325,0.0,2.0,90,0.00,,,0.00,,2013-03-15 13:22:00,
2013-03-15 09:32:00,33.0,30.0,29.90,WNW,294,1.0,4.0,90,0.00,,,0.00,,2013-03-15 13:32:00,
2013-03-15 09:42:00,33.0,30.0,29.90,WNW,294,1.0,4.0,90,0.00,,,0.00,,2013-03-15 13:42:00,
2013-03-15 09:53:00,33.0,30.0,29.90,WNW,294,1.0,4.0,89,0.00,,,0.00,,2013-03-15 13:53:00,
2013-03-15 10:02:00,34.0,31.0,29.90,WNW,302,0.0,3.0,89,0.00,,,0.00,,2013-03-15 14:02:00,
2013-03-15 10:12:00,34.0,31.0,29.90,WNW,302,0.0,3.0,89,0.00,,,0.00,,2013-03-15 14:12:00,
2013-03-15 10:22:00,34.0,31.0,29.90,NW,315,0.0,2.0,89,0.00,,,0.00,,2013-03-15 14:22:00,
2013-03-15 10:32:00,34.0,31.0,29.90,NW,318,1.0,6.0,88,0.00,,,0.00,,2013-03-15 14:32:00,
2013-03-15 10:42:00,34.0,31.0,29.90,NW,318,1.0,6.0,88,0.00,,,0.00,,2013-03-15 14:42:00,
2013-03-15 10:53:00,34.0,31.0,29.90,SW,227,4.0,7.0,87,0.00,,,0.00,,2013-03-15 14:53:00,
2013-03-15 11:02:00,35.0,31.0,29.90,NW,307,1.0,4.0,86,0.00,,,0.00,,2013-03-15 15:02:00,
2013-03-15 11:13:00,35.0,31.0,29.90,NW,307,1.0,4.0,86,0.00,,,0.00,,2013-03-15 15:13:00,
2013-03-15 11:23:00,35.0,31.0,29.90,NNW,346,0.0,4.0,86,0.00,,,0.00,,2013-03-15 15:23:00,
2013-03-15 11:33:00,35.0,31.0,29.90,NNW,328,0.0,4.0,84,0.00,,,0.00,,2013-03-15 15:33:00,
2013-03-15 11:42:00,35.0,31.0,29.91,WNW,296,1.0,5.0,84,0.00,,,0.00,,2013-03-15 15:42:00,
2013-03-15 11:53:00,35.0,31.0,29.91,WNW,296,1.0,5.0,84,0.00,,,0.00,,2013-03-15 15:53:00,
2013-03-15 12:03:00,35.0,31.0,29.90,NNW,327,0.0,5.0,84,0.00,,,0.00,,2013-03-15 16:03:00,
2013-03-15 12:12:00,36.0,31.0,29.89,NE,34,0.0,4.0,83,0.00,,,0.00,,2013-03-15 16:12:00,
2013-03-15 12:23:00,36.0,31.0,29.89,NE,34,0.0,4.0,83,0.00,,,0.00,,2013-03-15 16:23:00,
2013-03-15 12:32:00,36.0,31.0,29.88,NE,39,3.0,5.0,82,0.00,,,0.00,,2013-03-15 16:32:00,
2013-03-15 12:42:00,36.0,31.0,29.88,NE,39,3.0,5.0,82,0.00,,,0.00,,2013-03-15 16:42:00,
2013-03-15 12:52:00,36.0,31.0,29.88,NNW,343,1.0,4.0,82,0.00,,,0.00,,2013-03-15 16:52:00,
2013-03-15 13:02:00,36.0,31.0,29.88,NNE,16,0.0,3.0,82,0.00,,,0.00,,2013-03-15 17:02:00,
2013-03-15 13:12:00,36.0,31.0,29.88,NNE,16,0.0,3.0,82,0.00,,,0.00,,2013-03-15 17:12:00,
2013-03-15 13:22:00,36.0,31.0,29.89,NE,41,0.0,4.0,83,0.00,,,0.00,,2013-03-15 17:22:00,
2013-03-15 13:32:00,36.0,31.0,29.89,NNE,13,2.0,4.0,82,0.00,,,0.00,,2013-03-15 17:32:00,
2013-03-15 13:42:00,36.0,31.0,29.89,NNE,13,2.0,4.0,82,0.00,,,0.00,,2013-03-15 17:42:00,
2013-03-15 13:53:00,36.0,31.0,29.88,NW,319,2.0,3.0,83,0.00,,,0.00,,2013-03-15 17:53:00,
2013-03-15 14:03:00,37.0,32.0,29.88,ENE,65,0.0,3.0,82,0.00,,,0.00,,2013-03-15 18:03:00,
2013-03-15 14:12:00,37.0,32.0,29.88,ENE,65,0.0,3.0,82,0.00,,,0.00,,2013-03-15 18:12:00,
2013-03-15 14:22:00,37.0,32.0,29.88,ENE,62,2.0,3.0,81,0.00,,,0.00,,2013-03-15 18:22:00,
2013-03-15 14:32:00,37.0,32.0,29.88,ENE,62,0.0,2.0,81,0.00,,,0.00,,2013-03-15 18:32:00,
2013-03-15 14:42:00,37.0,32.0,29.88,ENE,62,0.0,2.0,81,0.00,,,0.00,,2013-03-15 18:42:00,
2013-03-15 14:52:00,37.0,31.0,29.88,North,355,1.0,4.0,80,0.00,,,0.00,,2013-03-15 18:52:00,
2013-03-15 15:02:00,37.0,31.0,29.87,West,277,1.0,3.0,80,0.00,,,0.00,,2013-03-15 19:02:00,
2013-03-15 15:12:00,37.0,31.0,29.87,West,277,1.0,3.0,80,0.00,,,0.00,,2013-03-15 19:12:00,
2013-03-15 15:22:00,37.0,32.0,29.87,NE,35,0.0,3.0,81,0.00,,,0.00,,2013-03-15 19:22:00,
2013-03-15 15:32:00,37.0,31.0,29.86,NNE,24,1.0,3.0,80,0.00,,,0.00,,2013-03-15 19:32:00,
2013-03-15 15:42:00,37.0,31.0,29.86,NNE,24,1.0,3.0,80,0.00,,,0.00,,2013-03-15 19:42:00,
2013-03-15 15:53:00,37.0,32.0,29.87,NNW,337,0.0,3.0,81,0.00,,,0.00,,2013-03-15 19:53:00,
2013-03-15 16:02:00,37.0,32.0,29.87,NNW,345,1.0,3.0,83,0.00,,,0.00,,2013-03-15 20:02:00,
2013-03-15 16:12:00,37.0,32.0,29.87,NNW,345,1.0,3.0,83,0.00,,,0.00,,2013-03-15 20:12:00,
2013-03-15 16:22:00,37.0,33.0,29.87,North,350,0.0,3.0,84,0.00,,,0.00,,2013-03-15 20:22:00,
2013-03-15 16:32:00,37.0,33.0,29.87,NE,36,1.0,3.0,85,0.00,,,0.00,,2013-03-15 20:32:00,
2013-03-15 16:42:00,37.0,33.0,29.87,NE,36,1.0,3.0,85,0.00,,,0.00,,2013-03-15 20:42:00,
2013-03-15 16:52:00,37.0,34.0,29.87,NE,35,0.0,1.0,87,0.00,,,0.00,,2013-03-15 20:52:00,
2013-03-15 17:02:00,37.0,34.0,29.87,NE,35,0.0,1.0,87,0.01,,,0.01,,2013-03-15 21:02:00,
2013-03-15 17:12:00,37.0,34.0,29.87,NE,35,0.0,1.0,87,0.01,,,0.01,,2013-03-15 21:12:00,
2013-03-15 17:22:00,36.0,33.0,29.87,NW,308,0.0,2.0,88,0.01,,,0.01,,2013-03-15 21:22:00,
2013-03-15 17:33:00,36.0,33.0,29.87,NW,311,0.0,2.0,89,0.01,,,0.01,,2013-03-15 21:33:00,
2013-03-15 17:43:00,36.0,33.0,29.87,NW,311,0.0,2.0,89,0.01,,,0.01,,2013-03-15 21:43:00,
2013-03-15 17:53:00,36.0,33.0,29.87,NW,319,0.0,0.0,89,0.01,,,0.01,,2013-03-15 21:53:00,
2013-03-15 18:03:00,36.0,33.0,29.87,East,95,3.0,5.0,89,0.00,,,0.01,,2013-03-15 22:03:00,
2013-03-15 18:14:00,36.0,33.0,29.87,East,95,3.0,5.0,89,0.00,,,0.01,,2013-03-15 22:14:00,
2013-03-15 18:22:00,36.0,33.0,29.86,ESE,106,0.0,4.0,88,0.01,,,0.02,,2013-03-15 22:22:00,
2013-03-15 18:32:00,36.0,33.0,29.86,ESE,106,0.0,2.0,89,0.01,,,0.02,,2013-03-15 22:32:00,
2013-03-15 18:42:00,36.0,33.0,29.86,ESE,106,0.0,2.0,89,0.01,,,0.02,,2013-03-15 22:42:00,
2013-03-15 18:53:00,36.0,33.0,29.86,ESE,112,1.0,2.0,89,0.01,,,0.02,,2013-03-15 22:53:00,
2013-03-15 19:02:00,35.0,32.0,29.85,ESE,113,1.0,4.0,89,0.01,,,0.02,,2013-03-15 23:02:00,
2013-03-15 19:12:00,35.0,32.0,29.85,ESE,113,1.0,4.0,89,0.01,,,0.02,,2013-03-15 23:12:00,
2013-03-15 19:22:00,35.0,32.0,29.85,ESE,121,0.0,2.0,89,0.00,,,0.02,,2013-03-15 23:22:00,
2013-03-15 19:32:00,35.0,32.0,29.85,ESE,121,0.0,1.0,89,0.00,,,0.02,,2013-03-15 23:32:00,
2013-03-15 19:42:00,35.0,32.0,29.85,ESE,121,0.0,1.0,89,0.00,,,0.02,,2013-03-15 23:42:00,
2013-03-15 19:53:00,35.0,32.0,29.85,ESE,121,0.0,5.0,90,0.00,,,0.02,,2013-03-15 23:53:00,
2013-03-15 20:03:00,35.0,33.0,29.85,ESE,121,0.0,1.0,91,0.00,,,0.02,,2013-03-16 00:03:00,
2013-03-15 20:12:00,35.0,33.0,29.85,ESE,121,0.0,1.0,91,0.00,,,0.02,,2013-03-16 00:12:00,
2013-03-15 20:22:00,35.0,32.0,29.85,ESE,121,0.0,1.0,90,0.00,,,0.02,,2013-03-16 00:22:00,
2013-03-15 20:32:00,35.0,33.0,29.85,ESE,121,0.0,1.0,91,0.00,,,0.02,,2013-03-16 00:32:00,
2013-03-15 20:42:00,35.0,33.0,29.85,ESE,121,0.0,1.0,91,0.00,,,0.02,,2013-03-16 00:42:00,
2013-03-15 20:52:00,34.0,32.0,29.86,ESE,121,0.0,0.0,91,0.00,,,0.02,,2013-03-16 00:52:00,
2013-03-15 21:03:00,34.0,32.0,29.85,ESE,121,0.0,1.0,92,0.00,,,0.02,,2013-03-16 01:03:00,
2013-03-15 21:12:00,34.0,32.0,29.85,ESE,121,0.0,1.0,92,0.00,,,0.02,,2013-03-16 01:12:00,
2013-03-15 21:22:00,34.0,32.0,29.85,ESE,121,0.0,0.0,92,0.00,,,0.02,,2013-03-16 01:22:00,
2013-03-15 21:32:00,34.0,32.0,29.86,ESE,121,0.0,0.0,93,0.00,,,0.02,,2013-03-16 01:32:00,
2013-03-15 21:42:00,34.0,32.0,29.86,ESE,121,0.0,0.0,93,0.00,,,0.02,,2013-03-16 01:42:00,
2013-03-15 21:53:00,34.0,32.0,29.85,ESE,121,1.0,2.0,92,0.00,,,0.02,,2013-03-16 01:53:00,
2013-03-15 22:02:00,34.0,32.0,29.86,SE,133,1.0,7.0,91,0.00,,,0.02,,2013-03-16 02:02:00,
2013-03-15 22:12:00,34.0,32.0,29.86,SE,133,1.0,7.0,91,0.00,,,0.02,,2013-03-16 02:12:00,
2013-03-15 22:23:00,33.0,28.0,29.86,East,90,8.0,12.0,83,0.00,,,0.02,,2013-03-16 02:23:00,
2013-03-15 22:32:00,32.0,27.0,29.86,ESE,114,2.0,11.0,82,0.00,,,0.02,,2013-03-16 02:32:00,
2013-03-15 22:42:00,32.0,27.0,29.86,ESE,114,2.0,11.0,82,0.00,,,0.02,,2013-03-16 02:42:00,
2013-03-15 22:52:00,31.0,26.0,29.85,ESE,118,1.0,5.0,82,0.00,,,0.02,,2013-03-16 02:52:00,
2013-03-15 23:02:00,31.0,25.0,29.86,SE,131,3.0,6.0,79,0.00,,,0.02,,2013-03-16 03:02:00,
2013-03-15 23:12:00,31.0,25.0,29.86,SE,131,3.0,6.0,79,0.00,,,0.02,,2013-03-16 03:12:00,
2013-03-15 23:22:00,31.0,25.0,29.86,SE,126,1.0,4.0,78,0.00,,,0.02,,2013-03-16 03:22:00,
2013-03-15 23:32:00,31.0,25.0,29.86,ESE,110,5.0,11.0,77,0.00,,,0.02,,2013-03-16 03:32:00,
2013-03-15 23:43:00,31.0,25.0,29.86,ESE,110,5.0,11.0,77,0.00,,,0.02,,2013-03-16 03:43:00,
2013-03-15 23:53:00,31.0,25.0,29.86,SE,134,2.0,6.0,79,0.00,,,0.02,,2013-03-16 03:53:00,